User: anonymous   Login
Location: Rumah Long Bangan
(2.8362°N, 113.7519°E)
Time: 09:12:37
(UTC+00:00)
Language:

Ariane H10+ - Orbit

View from above orbital plane
View from above orbital plane
View from above satellite
View from above satellite

Ground track
Ground track

The orbit data is extracted from the following two-line orbital elements,

1 22913U 93073C   22023.82115261  .00043312  00000-0  10503-2 0  9998
2 22913   6.7372 162.7244 3584395  67.9452 325.9756  8.29326018551232
Epoch (UTC): 23 January 2022 19:42:27
Eccentricity: 0.3584395
inclination: 6.7372°
perigee height: 236 km
apogee height: 7627 km
right ascension of ascending node: 162.7244°
argument of perigee: 67.9452°
revolutions per day: 8.29326018
mean anomaly at epoch: 325.9756°
orbit number at epoch: 55123

The dashed part of the orbit path shows where the satellite is in the earth's shadow,  

DLR